User: anonymous   Login
Location: Brno
(49.2000°N, 16.6330°E)
Time: 21:44:51
(UTC+02:00)
Language:

BREEZE M DEB (TANK) - Orbit

View from above orbital plane
View from above orbital plane
View from above satellite
View from above satellite

Ground track
Ground track

The orbit data is extracted from the following two-line orbital elements,

1 28359U 04022B   16119.23525390  .00002203  00000-0  29345-3 0  9995
2 28359  49.5407 100.8416 4676964 235.4842  71.2786  6.18161431259589
Epoch (UTC): 28 April 2016 05:38:45
Eccentricity: 0.4676964
inclination: 49.5407°
perigee height: 297 km
apogee height: 12028 km
right ascension of ascending node: 100.8416°
argument of perigee: 235.4842°
revolutions per day: 6.18161431
mean anomaly at epoch: 71.2786°
orbit number at epoch: 25958

The dashed part of the orbit path shows where the satellite is in the earth's shadow,  

DLR